Presure
180 157 152 165 171 201 211 210 222 233 236 392 388 375 366 376 366 366 345 437 296 194 170 194 178 165 167 156 160 160 147 161 162 149 162 158 161 159 164 151 149 143 147 143 155
165 193 172 178 171 195 195 206 214 208 224 237 261 345 367 358 363 361 366 348 410 300 291 206 189 178 167 166 152 159 158 154 156 155 163 167 155 152 143 157 152 168 133 142 138
152 139 191 174 162 168 193 197 189 206 202 218 239 256 352 362 341 348 365 354 389 353 283 187 212 185 172 173 170 157 153 142 155 154 152 164 157 158 156 160 160 148 156 144 151
149 154 204 185 204 166 177 190 188 183 203 215 209 231 243 352 339 342 367 371 348 408 276 251 181 141 186 180 160 137 160 165 169 146 170 168 139 168 153 151 158 154 150 151 154
156 187 153 169 157 152 164 193 170 174 189 199 210 211 227 238 360 348 343 375 363 356 323 269 262 284 173 176 183 154 168 164 171 175 156 165 163 148 170 170 162 131 179 163 144
128 143 172 156 189 195 181 172 185 168 179 192 191 203 214 223 234 280 367 358 388 346 381 299 281 266 238 179 182 186 177 161 148 171 160 165 170 170 168 162 162 164 171 161 145
179 127 145 139 141 166 191 189 169 182 159 196 179 192 203 209 211 237 264 371 381 382 362 357 283 275 267 282 245 189 169 170 167 175 167 169 172 158 160 172 168 160 154 161 171
178 177 160 179 135 195 178 184 186 183 166 163 188 196 190 205 210 204 231 259 383 369 370 353 359 281 274 265 197 197 192 206 190 175 162 173 155 142 168 177 172 168 168 168 169
145 150 145 192 186 136 156 150 170 186 189 168 171 201 165 185 202 211 209 236 250 361 355 356 360 333 279 263 272 268 270 196 200 193 182 174 168 169 160 183 178 183 154 169 197
170 157 141 162 195 182 150 185 161 171 183 192 188 178 197 189 183 201 205 210 230 245 367 364 352 352 343 285 253 250 258 206 196 205 150 190 182 176 166 168 176 170 158 178 186
153 174 159 160 172 179 172 187 180 187 189 175 177 189 186 199 184 207 198 203 204 215 240 289 357 338 333 325 330 243 248 264 270 217 200 244 197 187 179 177 169 179 181 188 171
138 126 157 159 181 128 189 178 191 174 152 176 169 183 183 185 193 195 182 196 205 208 214 251 291 352 333 336 328 326 277 247 253 257 260 252 193 243 216 189 189 186 179 182 178
174 176 145 175 137 168 159 193 184 176 156 190 181 170 177 179 190 185 207 185 206 213 208 215 234 361 353 331 321 318 312 302 244 236 245 249 234 231 241 215 228 192 181 177 173
130 172 155 150 184 169 177 175 176 170 149 168 176 180 179 170 193 183 188 171 195 212 219 208 219 229 344 349 339 317 298 297 302 285 236 252 254 245 244 231 185 233 212 180 188
174 165 161 119 154 168 182 131 182 189 169 189 183 175 183 176 190 181 188 198 216 180 217 223 206 218 232 279 340 325 337 317 295 284 286 264 254 235 235 235 228 193 193 190 222
130 149 147 156 143 186 183 180 181 189 159 148 151 166 164 188 188 186 175 189 213 228 216 228 230 217 219 234 274 325 320 317 334 312 316 285 258 248 242 232 225 217 216 231 222
163 154 151 173 163 176 183 145 140 173 172 179 162 152 160 181 180 191 198 194 201 215 222 218 235 240 218 217 233 264 295 312 314 314 329 293 279 282 227 226 228 231 228 226 229
169 161 172 138 159 183 188 184 168 171 172 156 136 183 155 161 182 183 191 199 191 205 215 234 242 234 233 218 234 239 258 310 304 304 304 299 336 67 260 245 245 232 232 216 220
146 164 157 161 147 158 170 194 186 122 189 187 179 191 189 158 157 185 191 189 204 218 215 233 237 226 242 215 220 227 250 256 313 312 305 311 311 291 103 86 228 251 237 231 233
160 144 172 160 161 183 119 176 177 128 172 191 175 162 178 187 161 164 173 193 197 195 217 231 244 218 239 210 219 234 232 248 265 314 310 299 289 294 251 273 268 274 267 251 251
136 146 177 172 126 168 187 179 185 176 183 186 182 184 174 201 195 163 198 195 198 211 222 242 244 231 234 217 216 235 223 246 246 268 305 292 287 266 277 241 243 245 247 261 280
155 158 177 164 176 178 170 179 186 179 190 122 174 177 188 198 196 189 160 196 196 227 243 249 237 233 234 222 216 230 222 239 247 254 307 306 281 263 249 269 245 239 251 255 246
142 130 163 145 148 182 189 179 177 183 177 128 178 206 187 168 194 189 197 201 207 241 248 246 235 237 234 233 217 224 224 227 241 244 269 309 307 240 248 236 253 253 240 256 262
190 179 183 190 184 157 182 179 180 185 190 196 187 159 180 145 158 188 206 201 212 252 254 245 241 239 239 230 219 233 225 225 238 240 287 309 299 265 237 242 237 241 246 246 245
183 178 188 189 186 181 180 176 185 184 165 192 151 206 209 159 212 224 223 216 243 260 246 250 244 243 242 231 218 240 225 238 236 237 315 293 306 282 256 237 234 234 232 235 241
188 179 130 146 129 195 183 173 140 202 187 205 208 213 235 217 279 236 222 277 268 256 241 243 248 244 243 224 237 234 229 241 236 235 341 306 296 275 262 250 229 230 227 222 226
186 187 189 180 175 164 153 205 183 151 185 209 146 263 252 246 231 225 277 269 262 258 259 256 253 246 243 227 247 229 232 230 239 241 342 333 298 278 261 250 244 227 226 224 222
Wind_Speed
56 57 39 62 50 74 80 84 87 99 97 46 22 16 12 6 13 25 48 27 86 91 99 128 128 117 118 108 119 118 83 115 114 84 102 86 88 88 98 72 71 73 77 79 73
64 57 61 45 79 69 76 80 85 82 94 100 101 40 16 15 9 20 23 45 40 98 100 131 134 126 112 120 108 111 111 100 98 96 105 109 79 85 87 91 85 93 78 81 82
54 34 57 68 48 76 72 73 67 80 74 90 97 100 34 24 20 16 14 19 23 71 98 105 132 132 120 114 124 119 97 78 102 87 80 114 90 87 88 91 87 82 78 83 83
60 63 63 56 68 75 84 73 73 70 77 93 82 93 96 29 24 17 17 7 19 33 96 98 105 67 136 127 104 68 124 115 127 77 125 118 78 109 80 76 82 81 87 88 84
54 64 44 74 73 55 74 73 51 70 72 76 86 82 91 91 23 16 13 9 17 26 73 96 98 104 104 117 127 91 132 127 119 130 96 109 110 82 112 110 93 83 104 84 89
31 50 75 60 59 66 67 74 69 56 69 70 67 78 87 91 84 68 17 10 8 23 26 83 96 100 104 113 118 132 135 122 99 132 105 113 116 118 114 96 89 90 104 88 87
73 30 60 42 49 72 64 62 62 68 40 69 59 65 74 78 74 87 76 9 9 16 28 39 88 94 99 99 115 132 113 131 125 144 107 116 123 95 89 115 106 82 79 90 107
74 66 70 66 38 62 56 63 60 61 62 48 66 70 61 75 75 61 86 75 5 14 23 33 37 89 91 93 105 116 127 127 138 133 125 127 91 84 112 127 120 112 107 99 103
50 55 53 69 61 44 62 62 67 60 65 59 55 79 35 57 69 73 64 81 69 8 16 24 33 54 84 85 90 90 98 130 131 139 144 139 133 122 97 126 123 131 96 96 119
71 66 54 68 63 60 48 59 69 60 59 72 67 61 74 61 51 65 62 64 75 66 8 26 28 34 40 77 84 89 93 113 121 132 93 140 145 138 113 116 130 120 79 131 129
58 82 70 70 72 56 57 65 61 66 66 56 60 68 59 77 54 75 59 59 54 62 64 37 28 29 36 44 52 95 97 99 102 128 123 120 136 140 137 134 120 133 132 133 118
48 43 59 60 75 41 71 68 70 55 61 58 55 65 59 61 69 64 46 54 57 56 56 59 28 34 39 44 49 56 86 95 98 100 99 105 119 116 134 139 139 136 128 130 126
81 76 58 84 52 67 58 73 69 62 58 72 63 55 58 61 68 56 78 49 62 62 51 56 57 28 38 44 48 54 59 70 98 104 101 100 112 108 111 125 126 130 125 123 125
42 84 60 51 82 72 70 69 58 62 59 58 59 64 62 53 75 64 61 41 57 64 63 48 55 56 29 34 47 52 60 67 71 85 99 100 94 99 96 105 116 97 112 129 135
90 74 75 34 57 81 79 42 72 73 52 70 65 56 69 58 74 56 69 74 79 46 66 65 42 52 53 32 43 42 58 66 72 77 83 92 92 95 95 94 101 125 124 126 110
47 66 63 66 55 82 82 79 76 76 55 60 61 56 55 75 72 68 55 69 82 85 69 76 71 50 48 50 34 43 51 56 62 71 75 75 88 85 87 92 102 114 114 101 111
86 75 64 90 78 87 87 51 46 70 67 68 61 61 59 64 68 76 82 78 78 83 82 67 75 73 50 45 49 37 38 54 59 63 58 70 78 65 90 95 98 100 104 105 102
94 86 93 56 72 92 86 83 71 69 64 55 46 69 63 60 67 71 83 89 71 81 80 83 76 69 58 50 54 46 39 57 62 60 58 62 53 25 81 93 99 102 101 109 106
63 91 80 86 65 75 89 88 87 35 89 79 72 77 74 63 61 77 85 83 92 96 81 83 72 66 62 52 53 52 46 43 58 62 62 55 50 57 36 37 77 92 98 99 98
85 68 101 83 84 93 33 85 85 40 81 90 70 59 64 70 65 62 71 90 95 71 87 89 66 63 64 51 55 53 52 46 45 62 59 46 47 52 68 67 73 75 81 86 85
64 74 104 98 41 93 94 90 93 86 90 90 84 79 74 96 87 66 96 89 99 100 94 84 66 64 59 55 55 57 53 51 46 42 58 50 44 52 59 75 78 80 81 77 74
78 82 100 93 99 99 94 93 94 91 100 41 81 76 86 95 91 78 65 92 92 101 82 71 67 60 59 54 56 58 55 55 51 47 65 60 46 50 58 65 76 80 76 77 81
75 56 78 70 76 100 95 96 94 97 93 43 88 109 82 78 90 80 96 106 105 87 73 67 66 62 60 56 54 55 57 57 55 52 50 67 42 60 61 65 70 73 80 74 71
94 101 100 98 98 73 99 98 99 102 107 111 95 71 91 66 68 80 109 102 105 75 65 68 65 63 59 58 57 54 54 58 58 57 60 73 56 61 69 69 70 70 74 75 75
95 93 100 102 103 99 101 101 105 101 79 103 68 114 119 76 113 117 109 107 84 64 72 65 64 64 60 58 62 56 58 54 56 58 82 69 67 62 67 73 73 70 69 71 72
105 97 54 75 57 110 106 101 61 120 107 124 120 125 125 101 86 97 106 68 64 66 76 72 63 65 59 63 60 55 62 61 59 57 82 82 74 61 66 71 74 72 72 72 72
102 106 106 104 99 86 74 126 102 71 104 121 60 98 97 98 103 101 70 66 69 68 67 67 66 68 60 65 59 55 55 66 70 63 79 77 83 70 67 71 73 77 77 77 78
Wind_Direction
356 349 330 352 352 1 13 11 14 22 21 19 38 28 26 158 219 223 228 221 227 234 234 229 231 235 236 240 243 245 245 250 252 243 254 253 256 256 261 242 242 241 244 246 250
343 355 356 4 351 359 356 11 16 14 22 21 26 23 11 351 286 258 251 235 216 222 224 229 231 233 234 235 244 243 246 248 249 251 253 257 246 246 252 255 251 255 244 244 248
345 323 353 347 354 355 1 4 4 17 15 20 23 26 23 13 11 342 310 252 226 220 223 228 228 230 234 233 233 245 245 245 250 250 251 253 254 253 251 255 251 235 249 245 252
347 350 7 360 11 354 350 358 1 7 17 23 21 22 25 11 8 349 355 294 228 213 220 225 229 249 231 233 237 256 248 245 247 242 251 252 233 256 238 239 250 242 244 252 250
351 1 349 344 351 359 355 5 0 4 10 18 23 22 22 23 8 1 346 322 211 224 217 223 225 226 230 234 233 234 239 249 247 248 247 253 251 244 255 256 255 246 263 256 242
334 349 348 353 4 11 4 350 359 1 7 13 16 23 25 22 22 21 5 346 244 226 213 220 223 226 228 234 235 233 235 242 248 251 247 249 252 254 254 255 255 259 264 258 243
350 345 345 357 358 342 9 9 354 3 1 14 12 16 21 23 21 19 21 349 253 224 219 219 225 226 228 230 229 234 239 241 246 249 251 253 255 253 252 255 257 251 242 262 264
351 353 354 344 359 8 345 5 7 2 358 7 10 13 13 19 20 20 17 20 306 239 228 227 220 229 228 230 234 233 234 236 238 243 251 249 245 244 254 255 257 260 263 263 264
341 346 351 354 354 358 349 352 356 8 7 356 2 13 8 9 15 17 19 15 17 305 250 238 231 230 231 232 231 234 237 237 237 237 241 247 254 257 254 259 262 264 253 260 261
345 346 344 351 353 354 357 2 340 356 1 6 5 3 9 7 5 11 14 15 15 12 278 231 238 234 232 232 231 232 234 236 236 237 241 242 245 248 252 253 255 256 250 262 265
344 345 346 350 348 342 341 357 355 2 1 352 0 2 3 6 1 5 7 8 9 11 9 2 239 246 234 228 222 229 232 235 238 235 238 239 241 244 248 250 253 255 256 256 260
334 340 343 347 347 350 348 343 353 348 343 349 347 354 357 -0 0 360 356 -0 3 6 10 5 345 234 240 236 233 233 235 234 237 240 241 241 241 241 243 247 249 251 253 255 257
342 341 341 344 335 342 345 347 347 345 340 356 351 345 349 352 356 353 358 352 357 357 359 5 1 250 238 239 241 236 235 237 236 236 239 240 240 244 244 245 245 249 251 253 256
331 340 336 333 338 341 342 342 339 334 337 337 345 348 348 342 350 348 349 342 348 352 352 351 359 355 257 241 240 239 239 236 236 239 239 241 240 240 243 243 247 248 249 249 249
333 334 337 333 330 335 338 343 340 342 331 345 347 341 349 340 346 344 345 348 348 335 346 347 341 351 349 341 248 238 239 239 238 240 240 243 241 240 242 244 243 246 247 248 247
325 324 326 330 333 333 334 336 336 338 318 334 331 329 330 342 342 341 334 340 343 343 341 341 344 341 345 342 344 247 246 246 242 242 240 240 243 240 243 241 241 242 243 244 245
328 325 326 329 329 328 329 331 338 331 336 334 328 328 324 341 335 340 339 337 338 338 336 335 335 339 333 333 336 337 267 254 247 243 243 239 238 231 240 240 241 242 241 242 244
323 325 325 321 323 325 326 327 325 324 325 315 338 332 323 324 337 336 338 336 331 333 332 333 334 334 330 329 332 330 326 248 253 252 242 236 236 263 230 236 239 238 239 241 242
309 321 321 322 316 323 323 327 327 321 325 327 323 329 328 315 319 334 336 331 331 329 328 330 330 327 327 322 324 325 324 320 252 254 252 244 229 230 242 248 238 240 239 239 239
315 315 318 316 319 320 318 321 320 328 320 324 317 322 324 326 309 317 324 330 328 321 323 326 325 320 322 314 318 322 317 315 319 253 254 248 238 225 234 232 235 237 238 239 239
303 310 313 315 321 316 318 316 318 315 318 319 316 317 321 324 325 311 328 326 325 321 320 319 318 319 317 312 312 316 313 313 308 299 257 247 235 234 224 234 236 239 238 237 236
306 305 310 311 311 311 312 313 316 313 317 313 318 312 316 321 323 320 315 323 319 318 314 311 312 314 311 307 307 312 309 310 306 311 253 249 228 229 234 227 235 237 236 235 236
304 310 309 311 308 309 312 309 308 311 313 320 315 315 312 311 319 321 320 319 317 312 308 307 307 309 305 304 301 306 304 303 301 299 298 250 230 227 227 230 234 235 241 237 234
305 303 306 308 307 311 306 305 307 307 310 309 310 317 313 317 315 311 314 314 314 305 300 302 302 301 300 300 298 301 297 298 298 296 272 250 237 224 226 228 229 234 237 239 240
305 306 307 307 305 303 302 300 303 303 309 305 309 311 312 307 312 310 309 310 305 295 299 295 298 295 296 296 297 297 294 294 292 291 247 255 245 229 227 227 230 231 235 241 242
306 304 308 303 302 304 297 300 310 306 306 306 308 310 307 310 302 307 309 298 294 293 297 294 292 291 292 294 294 293 294 295 289 284 240 243 245 232 228 227 229 230 232 235 240
301 304 303 296 298 302 306 302 303 305 305 306 312 303 304 306 307 308 298 292 292 292 291 291 289 289 292 292 290 292 290 286 287 284 243 239 239 237 225 226 227 227 230 232 236